Location: Newark
(45.2500°N, 7.5833°E)
Time: 01:11:21
(UTC+00:00)

A-11 Canister half - Pass Details

Date: 04 February 2020
Orbit: 1524 x 1684 km, 47.3° (Epoch: 26 February)

Event Time Altitude Azimuth Distance (km) Brightness Sun altitude
Rises 14:40:49 0° 236° (SW) 4,671 13.2 16.5°
Reaches altitude 10° 14:43:51 10° 234° (SW) 3,686 13.4 16.2°
Maximum altitude 14:53:03 71° 152° (SSE) 1,600 9.5 15.0°
Drops below altitude 10° 15:02:23 10° 71° (ENE) 3,737 10.5 13.8°
Sets 15:05:29 0° 70° (ENE) 4,740 11.0 13.4°
